Time,TemperatureF,DewpointF,PressureIn,WindDirection,WindDirectionDegrees,WindSpeedMPH,WindSpeedGustMPH,Humidity,HourlyPrecipIn,Conditions,Clouds,dailyrainin,SolarRadiationWatts/m^2,SoftwareType,DateUTC
2013-04-20 00:01:00,61.3,59.4,30.00,West,273,0.0,2.0,93,0.00,,,0.19,0.0,meteohub,2013-04-20 04:01:00,
2013-04-20 00:02:00,61.3,59.4,30.00,West,273,0.0,2.0,93,0.00,,,0.19,0.0,meteohub,2013-04-20 04:02:00,
2013-04-20 00:07:00,61.3,59.4,30.01,West,273,0.0,2.0,93,0.00,,,0.19,0.0,meteohub,2013-04-20 04:07:00,
2013-04-20 00:14:00,61.2,59.4,30.01,West,273,0.0,2.0,94,0.00,,,0.19,0.0,meteohub,2013-04-20 04:14:00,
2013-04-20 00:20:00,61.2,59.4,30.03,West,273,1.0,2.0,94,0.00,,,0.19,0.0,meteohub,2013-04-20 04:20:00,
2013-04-20 00:26:00,61.2,59.2,30.02,West,273,0.0,2.0,93,0.01,,,0.19,0.0,meteohub,2013-04-20 04:26:00,
2013-04-20 00:32:00,61.2,59.4,30.02,West,273,0.0,3.0,94,0.01,,,0.19,0.0,meteohub,2013-04-20 04:32:00,
2013-04-20 00:38:00,61.0,59.2,30.02,West,273,0.0,3.0,94,0.01,,,0.22,0.0,meteohub,2013-04-20 04:38:00,
2013-04-20 00:45:00,60.8,59.0,30.01,West,265,0.0,1.0,94,0.03,,,0.22,0.0,meteohub,2013-04-20 04:45:00,
2013-04-20 00:51:00,60.6,58.8,30.01,West,265,0.0,2.0,94,0.03,,,0.22,0.0,meteohub,2013-04-20 04:51:00,
2013-04-20 00:57:00,60.4,58.5,30.01,West,262,1.0,2.0,93,0.03,,,0.22,0.0,meteohub,2013-04-20 04:57:00,
2013-04-20 01:02:00,60.1,58.1,30.01,West,262,1.0,2.0,93,0.03,,,0.22,0.0,meteohub,2013-04-20 05:02:00,
2013-04-20 01:09:00,59.4,57.4,30.01,WSW,246,1.0,4.0,93,0.03,,,0.22,0.0,meteohub,2013-04-20 05:09:00,
2013-04-20 01:15:00,58.6,56.7,30.01,WNW,290,1.0,7.0,93,0.03,,,0.22,0.0,meteohub,2013-04-20 05:15:00,
2013-04-20 01:22:00,58.1,55.8,30.01,WSW,252,0.0,7.0,92,0.03,,,0.22,0.0,meteohub,2013-04-20 05:22:00,
2013-04-20 01:27:00,57.7,55.8,30.02,West,271,0.0,7.0,93,0.02,,,0.22,0.0,meteohub,2013-04-20 05:27:00,
2013-04-20 01:32:00,57.6,55.2,30.02,WSW,250,0.0,7.0,92,0.02,,,0.22,0.0,meteohub,2013-04-20 05:32:00,
2013-04-20 01:37:00,57.4,55.4,30.01,WSW,246,0.0,7.0,93,0.01,,,0.22,0.0,meteohub,2013-04-20 05:37:00,
2013-04-20 01:42:00,57.4,55.4,30.01,WSW,240,0.0,7.0,93,0.01,,,0.23,0.0,meteohub,2013-04-20 05:42:00,
2013-04-20 01:47:00,57.4,55.4,30.02,West,273,4.0,4.0,93,0.02,,,0.23,0.0,meteohub,2013-04-20 05:47:00,
2013-04-20 01:52:00,57.0,55.0,30.02,WSW,242,0.0,3.0,93,0.02,,,0.24,0.0,meteohub,2013-04-20 05:52:00,
2013-04-20 01:58:00,56.8,54.9,30.01,West,261,0.0,5.0,93,0.02,,,0.24,0.0,meteohub,2013-04-20 05:58:00,
2013-04-20 02:05:00,56.7,54.7,30.02,NW,321,2.0,5.0,93,0.03,,,0.24,0.0,meteohub,2013-04-20 06:05:00,
2013-04-20 02:11:00,56.3,54.3,30.01,West,267,1.0,4.0,93,0.03,,,0.26,0.0,meteohub,2013-04-20 06:11:00,
2013-04-20 02:17:00,55.9,54.0,30.02,SW,229,0.0,7.0,93,0.04,,,0.26,0.0,meteohub,2013-04-20 06:17:00,
2013-04-20 02:22:00,55.6,53.6,30.02,West,269,0.0,7.0,93,0.04,,,0.26,0.0,meteohub,2013-04-20 06:22:00,
2013-04-20 02:27:00,55.4,53.4,30.01,WNW,287,0.0,10.0,93,0.04,,,0.26,0.0,meteohub,2013-04-20 06:27:00,
2013-04-20 02:32:00,55.2,53.2,30.01,WSW,241,0.0,10.0,93,0.04,,,0.26,0.0,meteohub,2013-04-20 06:32:00,
2013-04-20 02:39:00,55.0,53.1,30.01,WSW,244,0.0,5.0,93,0.03,,,0.26,0.0,meteohub,2013-04-20 06:39:00,
2013-04-20 02:45:00,54.9,52.9,30.03,WSW,254,3.0,13.0,93,0.03,,,0.26,0.0,meteohub,2013-04-20 06:45:00,
2013-04-20 02:51:00,54.9,53.2,30.03,SSE,148,1.0,13.0,94,0.03,,,0.27,0.0,meteohub,2013-04-20 06:51:00,
2013-04-20 02:57:00,54.7,53.1,30.03,WSW,252,0.0,13.0,94,0.03,,,0.27,0.0,meteohub,2013-04-20 06:57:00,
2013-04-20 03:02:00,54.5,52.5,30.03,SW,224,0.0,13.0,93,0.03,,,0.27,0.0,meteohub,2013-04-20 07:02:00,
2013-04-20 03:07:00,54.1,52.2,30.03,WSW,256,0.0,9.0,93,0.02,,,0.27,0.0,meteohub,2013-04-20 07:07:00,
2013-04-20 03:12:00,53.8,51.8,30.05,SSW,194,0.0,9.0,93,0.02,,,0.27,0.0,meteohub,2013-04-20 07:12:00,
2013-04-20 03:17:00,53.6,51.6,30.05,WNW,294,0.0,11.0,93,0.02,,,0.27,0.0,meteohub,2013-04-20 07:17:00,
2013-04-20 03:22:00,53.4,51.4,30.03,SW,223,1.0,11.0,93,0.02,,,0.30,0.0,meteohub,2013-04-20 07:22:00,
2013-04-20 03:28:00,52.9,50.9,30.02,WSW,258,1.0,7.0,93,0.05,,,0.30,0.0,meteohub,2013-04-20 07:28:00,
2013-04-20 03:34:00,52.5,50.5,30.04,West,263,0.0,7.0,93,0.10,,,0.35,0.0,meteohub,2013-04-20 07:34:00,
2013-04-20 03:40:00,52.2,50.2,30.04,SW,229,0.0,5.0,93,0.10,,,0.35,0.0,meteohub,2013-04-20 07:40:00,
2013-04-20 03:46:00,52.2,50.2,30.05,WSW,256,0.0,5.0,93,0.13,,,0.39,0.0,meteohub,2013-04-20 07:46:00,
2013-04-20 03:52:00,52.0,50.0,30.05,WSW,256,0.0,5.0,93,0.13,,,0.42,0.0,meteohub,2013-04-20 07:52:00,
2013-04-20 03:57:00,52.0,50.0,30.04,WSW,254,2.0,5.0,93,0.16,,,0.42,0.0,meteohub,2013-04-20 07:57:00,
2013-04-20 04:02:00,52.0,50.0,30.04,West,261,0.0,5.0,93,0.16,,,0.47,0.0,meteohub,2013-04-20 08:02:00,
2013-04-20 04:07:00,51.8,50.2,30.05,WSW,248,0.0,5.0,94,0.21,,,0.47,0.0,meteohub,2013-04-20 08:07:00,
2013-04-20 04:12:00,51.8,50.2,30.05,WSW,248,0.0,5.0,94,0.21,,,0.51,0.0,meteohub,2013-04-20 08:12:00,
2013-04-20 04:17:00,51.6,50.0,30.06,WNW,289,0.0,5.0,94,0.24,,,0.51,0.0,meteohub,2013-04-20 08:17:00,
2013-04-20 04:22:00,51.6,50.0,30.05,WNW,289,0.0,5.0,94,0.24,,,0.55,0.0,meteohub,2013-04-20 08:22:00,
2013-04-20 04:27:00,51.6,50.0,30.06,WNW,287,0.0,5.0,94,0.24,,,0.55,0.0,meteohub,2013-04-20 08:27:00,
2013-04-20 04:32:00,51.6,50.0,30.06,West,275,1.0,5.0,94,0.24,,,0.57,0.0,meteohub,2013-04-20 08:32:00,
2013-04-20 04:37:00,51.6,50.0,30.06,West,275,0.0,3.0,94,0.22,,,0.57,0.0,meteohub,2013-04-20 08:37:00,
2013-04-20 04:42:00,51.6,50.0,30.05,West,273,0.0,3.0,94,0.22,,,0.59,0.0,meteohub,2013-04-20 08:42:00,
2013-04-20 04:47:00,51.6,50.0,30.04,WSW,245,1.0,4.0,94,0.19,,,0.59,0.0,meteohub,2013-04-20 08:47:00,
2013-04-20 04:52:00,51.6,50.0,30.05,SW,234,0.0,4.0,94,0.19,,,0.61,0.0,meteohub,2013-04-20 08:52:00,
2013-04-20 04:57:00,51.6,50.0,30.05,West,281,1.0,6.0,94,0.18,,,0.61,0.0,meteohub,2013-04-20 08:57:00,
2013-04-20 05:02:00,51.4,49.8,30.05,West,281,0.0,6.0,94,0.18,,,0.61,0.0,meteohub,2013-04-20 09:02:00,
2013-04-20 05:07:00,51.4,49.8,30.05,WSW,240,0.0,6.0,94,0.18,,,0.61,0.0,meteohub,2013-04-20 09:07:00,
2013-04-20 05:12:00,51.4,50.0,30.04,WSW,244,1.0,6.0,95,0.13,,,0.64,0.0,meteohub,2013-04-20 09:12:00,
2013-04-20 05:17:00,51.4,50.0,30.05,West,267,1.0,7.0,95,0.13,,,0.64,0.0,meteohub,2013-04-20 09:17:00,
2013-04-20 05:22:00,51.3,49.8,30.05,WSW,258,0.0,7.0,95,0.13,,,0.66,0.0,meteohub,2013-04-20 09:22:00,
2013-04-20 05:27:00,51.3,49.8,30.06,WSW,258,0.0,7.0,95,0.09,,,0.66,0.0,meteohub,2013-04-20 09:27:00,
2013-04-20 05:32:00,51.3,49.8,30.06,West,273,0.0,4.0,95,0.09,,,0.66,0.0,meteohub,2013-04-20 09:32:00,
2013-04-20 05:37:00,51.3,49.8,30.06,SE,130,1.0,4.0,95,0.09,,,0.68,0.0,meteohub,2013-04-20 09:37:00,
2013-04-20 05:42:00,51.3,49.8,30.06,SW,230,0.0,4.0,95,0.11,,,0.68,0.0,meteohub,2013-04-20 09:42:00,
2013-04-20 05:47:00,51.3,49.8,30.05,WNW,286,0.0,4.0,95,0.11,,,0.68,0.0,meteohub,2013-04-20 09:47:00,
2013-04-20 05:52:00,51.3,49.8,30.06,West,272,0.0,4.0,95,0.09,,,0.70,0.0,meteohub,2013-04-20 09:52:00,
2013-04-20 05:57:00,51.1,49.6,30.07,West,259,0.0,4.0,95,0.09,,,0.70,0.0,meteohub,2013-04-20 09:57:00,
2013-04-20 06:02:00,51.1,49.6,30.08,West,261,0.0,4.0,95,0.09,,,0.70,0.0,meteohub,2013-04-20 10:02:00,
2013-04-20 06:07:00,51.1,49.6,30.07,West,261,0.0,4.0,95,0.09,,,0.70,0.0,meteohub,2013-04-20 10:07:00,
2013-04-20 06:14:00,51.3,49.8,30.07,West,260,0.0,3.0,95,0.06,,,0.70,0.0,meteohub,2013-04-20 10:14:00,
2013-04-20 06:21:00,51.3,49.8,30.07,West,261,0.0,3.0,95,0.06,,,0.71,0.0,meteohub,2013-04-20 10:21:00,
2013-04-20 06:27:00,51.3,49.8,30.06,West,261,0.0,3.0,95,0.06,,,0.71,0.0,meteohub,2013-04-20 10:27:00,
2013-04-20 06:32:00,51.3,49.8,30.07,West,259,3.0,3.0,95,0.06,,,0.71,0.0,meteohub,2013-04-20 10:32:00,
2013-04-20 06:39:00,51.1,49.6,30.06,West,259,0.0,4.0,95,0.05,,,0.74,0.0,meteohub,2013-04-20 10:39:00,
2013-04-20 06:45:00,51.1,49.6,30.06,West,279,0.0,4.0,95,0.05,,,0.74,0.0,meteohub,2013-04-20 10:45:00,
2013-04-20 06:52:00,51.1,49.6,30.06,North,0,0.0,4.0,95,0.05,,,0.76,0.0,meteohub,2013-04-20 10:52:00,
2013-04-20 06:58:00,50.9,49.5,30.06,West,268,2.0,6.0,95,0.06,,,0.76,0.0,meteohub,2013-04-20 10:58:00,
2013-04-20 07:04:00,50.7,49.3,30.07,West,271,0.0,6.0,95,0.06,,,0.76,0.0,meteohub,2013-04-20 11:04:00,
2013-04-20 07:10:00,50.4,48.9,30.07,West,260,0.0,6.0,95,0.06,,,0.76,0.0,meteohub,2013-04-20 11:10:00,
2013-04-20 07:16:00,50.4,48.9,30.08,South,176,0.0,6.0,95,0.06,,,0.76,5.0,meteohub,2013-04-20 11:16:00,
2013-04-20 07:22:00,50.2,48.7,30.08,South,181,0.0,6.0,95,0.05,,,0.76,5.0,meteohub,2013-04-20 11:22:00,
2013-04-20 07:27:00,50.2,48.7,30.08,WSW,254,0.0,6.0,95,0.05,,,0.76,7.0,meteohub,2013-04-20 11:27:00,
2013-04-20 07:32:00,50.2,48.7,30.09,WSW,254,0.0,6.0,95,0.02,,,0.76,7.0,meteohub,2013-04-20 11:32:00,
2013-04-20 07:37:00,50.0,48.6,30.09,WSW,254,0.0,3.0,95,0.02,,,0.76,7.0,meteohub,2013-04-20 11:37:00,
2013-04-20 07:42:00,50.0,48.6,30.10,WSW,257,4.0,4.0,95,0.02,,,0.76,7.0,meteohub,2013-04-20 11:42:00,
2013-04-20 07:47:00,50.0,48.6,30.09,WSW,254,0.0,3.0,95,0.00,,,0.76,12.0,meteohub,2013-04-20 11:47:00,
2013-04-20 07:52:00,50.0,48.6,30.09,ESE,114,0.0,4.0,95,0.00,,,0.76,19.0,meteohub,2013-04-20 11:52:00,
2013-04-20 07:57:00,49.8,48.4,30.09,WSW,255,2.0,4.0,95,0.00,,,0.76,23.0,meteohub,2013-04-20 11:57:00,
2013-04-20 08:02:00,49.8,48.4,30.09,WSW,255,0.0,3.0,95,0.00,,,0.76,25.0,meteohub,2013-04-20 12:02:00,
2013-04-20 08:07:00,49.8,48.4,30.09,ENE,73,0.0,3.0,95,0.00,,,0.76,30.0,meteohub,2013-04-20 12:07:00,
2013-04-20 08:12:00,49.8,48.4,30.09,West,264,0.0,3.0,95,0.00,,,0.76,23.0,meteohub,2013-04-20 12:12:00,
2013-04-20 08:17:00,49.8,48.4,30.09,ENE,73,1.0,5.0,95,0.00,,,0.76,32.0,meteohub,2013-04-20 12:17:00,
2013-04-20 08:22:00,49.8,48.4,30.09,West,275,0.0,5.0,95,0.00,,,0.76,26.0,meteohub,2013-04-20 12:22:00,
2013-04-20 08:27:00,49.6,48.0,30.09,East,84,0.0,5.0,94,0.00,,,0.76,0.0,meteohub,2013-04-20 12:27:00,
2013-04-20 08:32:00,49.6,48.0,30.10,West,267,5.0,5.0,94,0.00,,,0.76,0.0,meteohub,2013-04-20 12:32:00,
2013-04-20 08:37:00,49.6,48.0,30.11,SW,220,0.0,4.0,94,0.00,,,0.76,0.0,meteohub,2013-04-20 12:37:00,
2013-04-20 08:42:00,49.8,48.2,30.12,SE,144,0.0,6.0,94,0.00,,,0.76,0.0,meteohub,2013-04-20 12:42:00,
2013-04-20 08:47:00,49.8,48.2,30.12,SE,144,0.0,6.0,94,0.00,,,0.76,0.0,meteohub,2013-04-20 12:47:00,
2013-04-20 08:52:00,49.8,48.2,30.12,SSE,148,0.0,6.0,94,0.00,,,0.76,0.0,meteohub,2013-04-20 12:52:00,
2013-04-20 08:58:00,49.8,48.2,30.11,South,184,1.0,2.0,94,0.00,,,0.76,0.0,meteohub,2013-04-20 12:58:00,
2013-04-20 09:05:00,49.6,48.0,30.11,NNW,339,0.0,2.0,94,0.00,,,0.76,0.0,meteohub,2013-04-20 13:05:00,
2013-04-20 09:11:00,49.6,48.0,30.11,NE,34,0.0,4.0,94,0.00,,,0.76,0.0,meteohub,2013-04-20 13:11:00,
2013-04-20 09:17:00,49.6,48.0,30.12,NE,36,0.0,4.0,94,0.00,,,0.76,0.0,meteohub,2013-04-20 13:17:00,
2013-04-20 09:22:00,49.6,48.0,30.12,NE,39,0.0,3.0,94,0.00,,,0.76,0.0,meteohub,2013-04-20 13:22:00,
2013-04-20 09:27:00,49.6,48.0,30.13,WNW,286,0.0,3.0,94,0.00,,,0.76,0.0,meteohub,2013-04-20 13:27:00,
2013-04-20 09:32:00,49.6,48.0,30.13,WNW,286,0.0,3.0,94,0.00,,,0.76,0.0,meteohub,2013-04-20 13:32:00,
2013-04-20 09:37:00,49.6,47.7,30.13,NW,315,0.0,1.0,93,0.00,,,0.76,0.0,meteohub,2013-04-20 13:37:00,
2013-04-20 09:42:00,49.6,47.7,30.14,West,267,0.0,1.0,93,0.00,,,0.76,0.0,meteohub,2013-04-20 13:42:00,
2013-04-20 09:47:00,49.6,47.7,30.13,SE,132,0.0,5.0,93,0.00,,,0.76,26.0,meteohub,2013-04-20 13:47:00,
2013-04-20 09:52:00,49.6,47.7,30.13,SE,132,0.0,5.0,93,0.00,,,0.76,35.0,meteohub,2013-04-20 13:52:00,
2013-04-20 09:57:00,49.8,47.8,30.14,SE,132,0.0,5.0,93,0.00,,,0.76,28.0,meteohub,2013-04-20 13:57:00,
2013-04-20 10:02:00,49.8,47.8,30.15,SE,132,0.0,5.0,93,0.00,,,0.76,58.0,meteohub,2013-04-20 14:02:00,
2013-04-20 10:07:00,50.2,48.2,30.14,SE,132,0.0,2.0,93,0.00,,,0.76,113.0,meteohub,2013-04-20 14:07:00,
2013-04-20 10:12:00,50.4,48.2,30.14,SW,225,0.0,2.0,92,0.00,,,0.76,167.0,meteohub,2013-04-20 14:12:00,
2013-04-20 10:17:00,50.5,48.0,30.14,West,264,0.0,3.0,91,0.00,,,0.76,179.0,meteohub,2013-04-20 14:17:00,
2013-04-20 10:22:00,51.1,48.9,30.15,North,5,0.0,3.0,92,0.00,,,0.76,183.0,meteohub,2013-04-20 14:22:00,
2013-04-20 10:28:00,51.3,48.4,30.15,WSW,242,0.0,5.0,90,0.00,,,0.76,135.0,meteohub,2013-04-20 14:28:00,
2013-04-20 10:34:00,51.3,48.4,30.15,WSW,243,0.0,6.0,90,0.00,,,0.76,148.0,meteohub,2013-04-20 14:34:00,
2013-04-20 10:40:00,51.4,48.4,30.15,WSW,244,0.0,6.0,89,0.00,,,0.76,220.0,meteohub,2013-04-20 14:40:00,
2013-04-20 10:47:00,51.4,48.0,30.15,NNE,17,0.0,3.0,88,0.00,,,0.76,153.0,meteohub,2013-04-20 14:47:00,
2013-04-20 10:52:00,51.4,47.7,30.15,NNW,327,0.0,3.0,87,0.00,,,0.76,128.0,meteohub,2013-04-20 14:52:00,
2013-04-20 10:57:00,51.4,47.5,30.16,NNW,342,0.0,2.0,86,0.00,,,0.76,130.0,meteohub,2013-04-20 14:57:00,
2013-04-20 11:02:00,51.6,47.8,30.16,East,84,0.0,2.0,87,0.00,,,0.76,151.0,meteohub,2013-04-20 15:02:00,
2013-04-20 11:07:00,52.0,48.2,30.15,West,281,0.0,6.0,87,0.00,,,0.76,130.0,meteohub,2013-04-20 15:07:00,
2013-04-20 11:12:00,51.6,47.5,30.15,ENE,57,0.0,6.0,86,0.00,,,0.76,105.0,meteohub,2013-04-20 15:12:00,
2013-04-20 11:17:00,51.6,47.3,30.16,SW,233,0.0,6.0,85,0.00,,,0.76,102.0,meteohub,2013-04-20 15:17:00,
2013-04-20 11:22:00,51.6,47.5,30.15,West,274,0.0,6.0,86,0.00,,,0.76,102.0,meteohub,2013-04-20 15:22:00,
2013-04-20 11:27:00,51.6,47.5,30.15,WSW,255,0.0,6.0,86,0.00,,,0.76,142.0,meteohub,2013-04-20 15:27:00,
2013-04-20 11:32:00,51.6,47.5,30.14,NNE,33,0.0,6.0,86,0.00,,,0.76,139.0,meteohub,2013-04-20 15:32:00,
2013-04-20 11:39:00,51.6,47.3,30.16,WSW,257,0.0,4.0,85,0.00,,,0.76,127.0,meteohub,2013-04-20 15:39:00,
2013-04-20 11:45:00,52.0,47.7,30.16,West,263,0.0,4.0,85,0.00,,,0.76,236.0,meteohub,2013-04-20 15:45:00,
2013-04-20 11:51:00,52.5,48.4,30.16,West,261,0.0,4.0,86,0.00,,,0.76,258.0,meteohub,2013-04-20 15:51:00,
2013-04-20 11:57:00,52.9,48.2,30.16,West,267,2.0,5.0,84,0.00,,,0.76,373.0,meteohub,2013-04-20 15:57:00,
2013-04-20 12:02:00,53.2,48.6,30.16,NE,38,0.0,5.0,84,0.00,,,0.76,485.0,meteohub,2013-04-20 16:02:00,
2013-04-20 12:07:00,53.4,48.4,30.15,WSW,246,0.0,6.0,83,0.00,,,0.76,454.0,meteohub,2013-04-20 16:07:00,
2013-04-20 12:12:00,54.1,48.7,30.14,ENE,70,0.0,6.0,82,0.00,,,0.76,643.0,meteohub,2013-04-20 16:12:00,
2013-04-20 12:19:00,54.5,48.7,30.14,SSW,206,0.0,5.0,81,0.00,,,0.76,366.0,meteohub,2013-04-20 16:19:00,
2013-04-20 12:25:00,54.9,49.8,30.15,ESE,108,2.0,5.0,83,0.00,,,0.76,369.0,meteohub,2013-04-20 16:25:00,
2013-04-20 12:32:00,54.9,48.7,30.15,NE,40,2.0,4.0,80,0.00,,,0.76,362.0,meteohub,2013-04-20 16:32:00,
2013-04-20 12:37:00,54.9,48.6,30.15,WSW,242,1.0,4.0,79,0.00,,,0.76,346.0,meteohub,2013-04-20 16:37:00,
2013-04-20 12:42:00,55.2,49.1,30.15,WSW,249,0.0,4.0,80,0.00,,,0.76,396.0,meteohub,2013-04-20 16:42:00,
2013-04-20 12:47:00,55.2,48.2,30.15,NW,325,0.0,4.0,77,0.00,,,0.76,352.0,meteohub,2013-04-20 16:47:00,
2013-04-20 12:53:00,55.6,48.9,30.15,WSW,244,0.0,4.0,78,0.00,,,0.76,406.0,meteohub,2013-04-20 16:53:00,
2013-04-20 12:59:00,55.9,49.5,30.15,West,269,0.0,5.0,79,0.00,,,0.76,538.0,meteohub,2013-04-20 16:59:00,
2013-04-20 13:06:00,56.1,48.7,30.14,NNW,346,0.0,5.0,76,0.00,,,0.76,338.0,meteohub,2013-04-20 17:06:00,
2013-04-20 13:12:00,56.5,49.3,30.15,ENE,78,2.0,6.0,77,0.00,,,0.76,341.0,meteohub,2013-04-20 17:12:00,
2013-04-20 13:17:00,56.5,48.9,30.14,North,5,0.0,6.0,76,0.00,,,0.76,392.0,meteohub,2013-04-20 17:17:00,
2013-04-20 13:22:00,56.7,48.7,30.14,NNW,338,0.0,6.0,75,0.00,,,0.76,427.0,meteohub,2013-04-20 17:22:00,
2013-04-20 13:27:00,56.5,48.4,30.14,NE,49,0.0,4.0,74,0.00,,,0.76,332.0,meteohub,2013-04-20 17:27:00,
2013-04-20 13:32:00,56.1,48.0,30.14,NE,34,0.0,4.0,74,0.00,,,0.76,229.0,meteohub,2013-04-20 17:32:00,
2013-04-20 13:37:00,55.9,48.6,30.13,NE,41,0.0,3.0,76,0.00,,,0.76,225.0,meteohub,2013-04-20 17:37:00,
2013-04-20 13:42:00,56.1,48.7,30.13,WSW,252,0.0,3.0,76,0.00,,,0.76,253.0,meteohub,2013-04-20 17:42:00,
2013-04-20 13:47:00,56.7,48.7,30.14,NNW,335,0.0,3.0,75,0.00,,,0.76,260.0,meteohub,2013-04-20 17:47:00,
2013-04-20 13:52:00,56.5,48.7,30.14,NW,314,0.0,3.0,75,0.00,,,0.76,257.0,meteohub,2013-04-20 17:52:00,
2013-04-20 13:57:00,56.7,49.1,30.14,NW,317,0.0,3.0,76,0.00,,,0.76,315.0,meteohub,2013-04-20 17:57:00,
2013-04-20 14:02:00,56.7,48.7,30.13,North,355,0.0,3.0,75,0.00,,,0.76,260.0,meteohub,2013-04-20 18:02:00,
2013-04-20 14:07:00,56.7,48.7,30.13,NE,43,0.0,4.0,75,0.00,,,0.76,332.0,meteohub,2013-04-20 18:07:00,
2013-04-20 14:12:00,57.2,50.4,30.13,East,96,0.0,4.0,78,0.00,,,0.76,431.0,meteohub,2013-04-20 18:12:00,
2013-04-20 14:17:00,57.9,50.0,30.13,WNW,300,0.0,4.0,75,0.00,,,0.76,527.0,meteohub,2013-04-20 18:17:00,
2013-04-20 14:22:00,58.3,49.6,30.13,ENE,58,0.0,4.0,73,0.00,,,0.76,445.0,meteohub,2013-04-20 18:22:00,
2013-04-20 14:27:00,57.9,49.3,30.14,NNE,31,0.0,7.0,73,0.00,,,0.76,325.0,meteohub,2013-04-20 18:27:00,
2013-04-20 14:32:00,57.9,49.6,30.13,NNW,331,0.0,7.0,74,0.00,,,0.76,369.0,meteohub,2013-04-20 18:32:00,
2013-04-20 14:37:00,58.3,50.4,30.13,WSW,251,0.0,7.0,75,0.00,,,0.76,327.0,meteohub,2013-04-20 18:37:00,
2013-04-20 14:42:00,58.3,50.0,30.14,ENE,74,1.0,7.0,74,0.00,,,0.76,355.0,meteohub,2013-04-20 18:42:00,
2013-04-20 14:47:00,58.5,50.2,30.14,NNE,31,0.0,5.0,74,0.00,,,0.76,529.0,meteohub,2013-04-20 18:47:00,
2013-04-20 14:52:00,59.0,51.4,30.13,NNE,31,2.0,5.0,76,0.00,,,0.76,255.0,meteohub,2013-04-20 18:52:00,
2013-04-20 14:57:00,58.6,49.6,30.12,West,271,1.0,4.0,72,0.00,,,0.76,239.0,meteohub,2013-04-20 18:57:00,
2013-04-20 15:02:00,57.9,48.9,30.13,NNE,32,4.0,4.0,72,0.00,,,0.76,292.0,meteohub,2013-04-20 19:02:00,
2013-04-20 15:07:00,58.1,50.5,30.12,WNW,283,1.0,6.0,76,0.00,,,0.76,422.0,meteohub,2013-04-20 19:07:00,
2013-04-20 15:12:00,60.1,51.8,30.12,NE,34,0.0,6.0,74,0.00,,,0.76,891.0,meteohub,2013-04-20 19:12:00,
2013-04-20 15:18:00,61.2,51.6,30.13,NE,34,3.0,6.0,71,0.00,,,0.76,742.0,meteohub,2013-04-20 19:18:00,
2013-04-20 15:25:00,60.4,51.4,30.12,South,169,0.0,6.0,72,0.00,,,0.76,710.0,meteohub,2013-04-20 19:25:00,
2013-04-20 15:31:00,60.3,50.9,30.13,SW,236,0.0,4.0,71,0.00,,,0.76,376.0,meteohub,2013-04-20 19:31:00,
2013-04-20 15:37:00,60.4,50.5,30.13,ENE,68,1.0,4.0,70,0.00,,,0.76,411.0,meteohub,2013-04-20 19:37:00,
2013-04-20 15:42:00,60.3,51.3,30.12,ENE,68,0.0,4.0,72,0.00,,,0.76,373.0,meteohub,2013-04-20 19:42:00,
2013-04-20 15:47:00,61.7,51.8,30.12,NE,53,0.0,5.0,70,0.00,,,0.76,721.0,meteohub,2013-04-20 19:47:00,
2013-04-20 15:52:00,61.7,52.2,30.12,NNE,26,0.0,5.0,71,0.00,,,0.76,621.0,meteohub,2013-04-20 19:52:00,
2013-04-20 15:57:00,61.3,50.4,30.12,NW,322,0.0,5.0,67,0.00,,,0.76,373.0,meteohub,2013-04-20 19:57:00,
2013-04-20 16:02:00,61.0,51.4,30.13,NE,51,1.0,5.0,71,0.00,,,0.76,441.0,meteohub,2013-04-20 20:02:00,
2013-04-20 16:07:00,60.8,50.5,30.12,ENE,64,0.0,6.0,69,0.00,,,0.76,380.0,meteohub,2013-04-20 20:07:00,
2013-04-20 16:12:00,61.3,51.8,30.12,South,170,1.0,6.0,71,0.00,,,0.76,355.0,meteohub,2013-04-20 20:12:00,
2013-04-20 16:17:00,62.2,52.0,30.12,North,5,1.0,5.0,69,0.00,,,0.76,234.0,meteohub,2013-04-20 20:17:00,
2013-04-20 16:22:00,62.1,51.4,30.12,ENE,66,1.0,5.0,68,0.00,,,0.76,214.0,meteohub,2013-04-20 20:22:00,
2013-04-20 16:27:00,61.9,52.3,30.11,NE,34,3.0,5.0,71,0.00,,,0.76,158.0,meteohub,2013-04-20 20:27:00,
2013-04-20 16:32:00,61.3,52.7,30.11,NNE,18,0.0,5.0,73,0.00,,,0.76,158.0,meteohub,2013-04-20 20:32:00,
2013-04-20 16:37:00,61.2,51.6,30.11,NE,46,0.0,4.0,71,0.00,,,0.76,281.0,meteohub,2013-04-20 20:37:00,
2013-04-20 16:42:00,61.5,51.3,30.11,ENE,68,0.0,4.0,69,0.00,,,0.76,295.0,meteohub,2013-04-20 20:42:00,
2013-04-20 16:47:00,62.2,52.3,30.11,NE,49,1.0,3.0,70,0.00,,,0.76,448.0,meteohub,2013-04-20 20:47:00,
2013-04-20 16:52:00,62.6,52.0,30.11,NE,51,1.0,3.0,68,0.00,,,0.76,645.0,meteohub,2013-04-20 20:52:00,
2013-04-20 16:57:00,62.1,50.5,30.11,West,276,0.0,5.0,66,0.00,,,0.76,169.0,meteohub,2013-04-20 20:57:00,
2013-04-20 17:02:00,61.5,50.9,30.11,NE,44,2.0,5.0,68,0.00,,,0.76,204.0,meteohub,2013-04-20 21:02:00,
2013-04-20 17:07:00,62.1,51.8,30.10,NE,41,4.0,6.0,69,0.00,,,0.76,515.0,meteohub,2013-04-20 21:07:00,
2013-04-20 17:12:00,62.4,52.2,30.10,NNE,13,2.0,6.0,69,0.00,,,0.76,318.0,meteohub,2013-04-20 21:12:00,
2013-04-20 17:17:00,62.4,52.2,30.11,NE,34,1.0,6.0,69,0.00,,,0.76,102.0,meteohub,2013-04-20 21:17:00,
2013-04-20 17:22:00,61.9,51.6,30.10,ENE,71,0.0,6.0,69,0.00,,,0.76,121.0,meteohub,2013-04-20 21:22:00,
2013-04-20 17:28:00,61.5,51.6,30.11,NE,41,1.0,4.0,70,0.00,,,0.76,107.0,meteohub,2013-04-20 21:28:00,
2013-04-20 17:34:00,61.3,51.1,30.11,NNE,25,0.0,4.0,69,0.00,,,0.76,116.0,meteohub,2013-04-20 21:34:00,
2013-04-20 17:40:00,61.5,53.2,30.11,West,260,0.0,4.0,74,0.00,,,0.76,475.0,meteohub,2013-04-20 21:40:00,
2013-04-20 17:46:00,63.0,52.7,30.12,ENE,68,0.0,4.0,69,0.00,,,0.76,483.0,meteohub,2013-04-20 21:46:00,
2013-04-20 17:52:00,63.1,52.9,30.11,North,9,0.0,4.0,69,0.00,,,0.76,506.0,meteohub,2013-04-20 21:52:00,
2013-04-20 17:59:00,63.7,52.5,30.11,ENE,70,2.0,4.0,67,0.00,,,0.76,438.0,meteohub,2013-04-20 21:59:00,
2013-04-20 18:05:00,63.5,53.1,30.12,NNE,19,3.0,4.0,69,0.00,,,0.76,127.0,meteohub,2013-04-20 22:05:00,
2013-04-20 18:11:00,63.1,52.3,30.12,ENE,76,0.0,5.0,68,0.00,,,0.76,195.0,meteohub,2013-04-20 22:11:00,
2013-04-20 18:17:00,63.0,52.7,30.11,East,87,0.0,5.0,69,0.00,,,0.76,127.0,meteohub,2013-04-20 22:17:00,
2013-04-20 18:22:00,62.8,53.2,30.12,ENE,78,0.0,4.0,71,0.00,,,0.76,274.0,meteohub,2013-04-20 22:22:00,
2013-04-20 18:27:00,63.0,53.8,30.12,ENE,77,0.0,4.0,72,0.00,,,0.76,19.0,meteohub,2013-04-20 22:27:00,
2013-04-20 18:32:00,63.0,53.4,30.12,South,179,0.0,4.0,71,0.00,,,0.76,88.0,meteohub,2013-04-20 22:32:00,
2013-04-20 18:37:00,62.8,53.6,30.12,South,179,0.0,3.0,72,0.00,,,0.76,56.0,meteohub,2013-04-20 22:37:00,
2013-04-20 18:42:00,62.6,53.1,30.12,South,179,0.0,3.0,71,0.00,,,0.76,14.0,meteohub,2013-04-20 22:42:00,
2013-04-20 18:47:00,62.6,53.8,30.12,South,176,0.0,3.0,73,0.00,,,0.76,32.0,meteohub,2013-04-20 22:47:00,
2013-04-20 18:52:00,62.4,53.6,30.12,South,175,0.0,3.0,73,0.00,,,0.76,5.0,meteohub,2013-04-20 22:52:00,
2013-04-20 18:57:00,62.2,53.4,30.12,South,175,0.0,1.0,73,0.00,,,0.76,0.0,meteohub,2013-04-20 22:57:00,
2013-04-20 19:02:00,62.1,53.2,30.12,South,175,0.0,1.0,73,0.00,,,0.76,0.0,meteohub,2013-04-20 23:02:00,
2013-04-20 19:07:00,61.9,53.4,30.12,South,175,0.0,1.0,74,0.00,,,0.76,0.0,meteohub,2013-04-20 23:07:00,
2013-04-20 19:12:00,61.7,53.2,30.12,South,175,0.0,1.0,74,0.00,,,0.76,0.0,meteohub,2013-04-20 23:12:00,
2013-04-20 19:19:00,61.3,53.4,30.12,South,175,0.0,1.0,75,0.00,,,0.76,0.0,meteohub,2013-04-20 23:19:00,
2013-04-20 19:25:00,61.0,53.4,30.13,South,175,0.0,3.0,76,0.00,,,0.76,0.0,meteohub,2013-04-20 23:25:00,
2013-04-20 19:31:00,60.6,53.1,30.13,South,175,0.0,3.0,76,0.00,,,0.76,0.0,meteohub,2013-04-20 23:31:00,
2013-04-20 19:37:00,60.4,52.9,30.13,South,175,0.0,1.0,76,0.00,,,0.76,0.0,meteohub,2013-04-20 23:37:00,
2013-04-20 19:42:00,60.4,53.2,30.13,South,175,0.0,1.0,77,0.00,,,0.76,0.0,meteohub,2013-04-20 23:42:00,
2013-04-20 19:47:00,60.3,53.1,30.14,South,175,0.0,0.0,77,0.00,,,0.76,0.0,meteohub,2013-04-20 23:47:00,
2013-04-20 19:52:00,60.1,52.9,30.14,South,175,0.0,0.0,77,0.00,,,0.76,0.0,meteohub,2013-04-20 23:52:00,
2013-04-20 19:57:00,59.7,52.5,30.14,South,175,0.0,0.0,77,0.00,,,0.76,0.0,meteohub,2013-04-20 23:57:00,
2013-04-20 20:02:00,59.5,52.7,30.14,SW,215,0.0,0.0,78,0.00,,,0.76,0.0,meteohub,2013-04-21 00:02:00,
2013-04-20 20:08:00,59.2,52.7,30.14,SE,137,0.0,0.0,79,0.00,,,0.76,0.0,meteohub,2013-04-21 00:08:00,
2013-04-20 20:14:00,58.8,52.3,30.15,SE,137,0.0,0.0,79,0.00,,,0.00,0.0,meteohub,2013-04-21 00:14:00,
2013-04-20 20:21:00,58.5,52.0,30.15,SE,137,0.0,0.0,79,0.00,,,0.00,0.0,meteohub,2013-04-21 00:21:00,
2013-04-20 20:27:00,57.9,51.8,30.16,SE,137,0.0,0.0,80,0.00,,,0.00,0.0,meteohub,2013-04-21 00:27:00,
2013-04-20 20:32:00,57.6,51.8,30.16,SE,137,0.0,0.0,81,0.00,,,0.00,0.0,meteohub,2013-04-21 00:32:00,
2013-04-20 20:37:00,57.0,51.3,30.16,SE,137,0.0,0.0,81,0.00,,,0.00,0.0,meteohub,2013-04-21 00:37:00,
2013-04-20 20:42:00,56.8,51.4,30.16,SE,137,0.0,0.0,82,0.00,,,0.00,0.0,meteohub,2013-04-21 00:42:00,
2013-04-20 20:47:00,56.5,51.1,30.17,SE,137,0.0,0.0,82,0.00,,,0.00,0.0,meteohub,2013-04-21 00:47:00,
2013-04-20 20:52:00,56.1,50.7,30.17,SE,137,0.0,0.0,82,0.00,,,0.00,0.0,meteohub,2013-04-21 00:52:00,
2013-04-20 20:57:00,55.8,50.7,30.17,SE,137,0.0,0.0,83,0.00,,,0.00,0.0,meteohub,2013-04-21 00:57:00,
2013-04-20 21:02:00,55.6,50.5,30.17,SE,137,0.0,0.0,83,0.00,,,0.00,0.0,meteohub,2013-04-21 01:02:00,
2013-04-20 21:07:00,55.2,50.5,30.17,SE,137,0.0,0.0,84,0.00,,,0.00,0.0,meteohub,2013-04-21 01:07:00,
2013-04-20 21:12:00,55.0,50.4,30.17,SE,137,0.0,0.0,84,0.00,,,0.00,0.0,meteohub,2013-04-21 01:12:00,
2013-04-20 21:17:00,54.7,50.2,30.17,SE,137,0.0,0.0,85,0.00,,,0.00,0.0,meteohub,2013-04-21 01:17:00,
2013-04-20 21:22:00,54.5,50.0,30.18,SE,137,0.0,0.0,85,0.00,,,0.00,0.0,meteohub,2013-04-21 01:22:00,
2013-04-20 21:27:00,54.1,49.8,30.17,SE,137,0.0,0.0,85,0.00,,,0.00,0.0,meteohub,2013-04-21 01:27:00,
2013-04-20 21:32:00,54.1,49.8,30.17,SE,137,0.0,0.0,85,0.00,,,0.00,0.0,meteohub,2013-04-21 01:32:00,
2013-04-20 21:38:00,53.8,49.6,30.18,SE,137,0.0,0.0,86,0.00,,,0.00,0.0,meteohub,2013-04-21 01:38:00,
2013-04-20 21:44:00,53.4,49.3,30.18,SE,137,0.0,0.0,86,0.00,,,0.00,0.0,meteohub,2013-04-21 01:44:00,
2013-04-20 21:50:00,53.2,49.5,30.19,SE,137,0.0,0.0,87,0.00,,,0.00,0.0,meteohub,2013-04-21 01:50:00,
2013-04-20 21:56:00,53.1,49.3,30.19,SE,137,0.0,0.0,87,0.00,,,0.00,0.0,meteohub,2013-04-21 01:56:00,
2013-04-20 22:02:00,52.9,49.1,30.19,SE,137,0.0,0.0,87,0.00,,,0.00,0.0,meteohub,2013-04-21 02:02:00,
2013-04-20 22:07:00,52.9,49.5,30.19,SE,137,0.0,0.0,88,0.00,,,0.00,0.0,meteohub,2013-04-21 02:07:00,
2013-04-20 22:12:00,52.5,49.1,30.19,SE,137,0.0,0.0,88,0.00,,,0.00,0.0,meteohub,2013-04-21 02:12:00,
2013-04-20 22:18:00,52.3,48.9,30.19,SE,137,0.0,0.0,88,0.00,,,0.00,0.0,meteohub,2013-04-21 02:18:00,
2013-04-20 22:24:00,52.2,48.7,30.19,SE,137,0.0,0.0,88,0.00,,,0.00,0.0,meteohub,2013-04-21 02:24:00,
2013-04-20 22:30:00,52.0,48.9,30.20,SE,137,0.0,0.0,89,0.00,,,0.00,0.0,meteohub,2013-04-21 02:30:00,
2013-04-20 22:37:00,51.8,48.7,30.19,SE,137,0.0,0.0,89,0.00,,,0.00,0.0,meteohub,2013-04-21 02:37:00,
2013-04-20 22:42:00,51.6,48.6,30.19,SE,137,0.0,0.0,89,0.00,,,0.00,0.0,meteohub,2013-04-21 02:42:00,
2013-04-20 22:49:00,51.4,48.4,30.19,SE,137,0.0,0.0,89,0.00,,,0.00,0.0,meteohub,2013-04-21 02:49:00,
2013-04-20 22:55:00,51.3,48.2,30.20,SE,137,0.0,0.0,89,0.00,,,0.00,0.0,meteohub,2013-04-21 02:55:00,
2013-04-20 23:01:00,51.3,48.4,30.20,SE,137,0.0,0.0,90,0.00,,,0.00,0.0,meteohub,2013-04-21 03:01:00,
2013-04-20 23:07:00,51.1,48.2,30.20,SE,137,0.0,0.0,90,0.00,,,0.00,0.0,meteohub,2013-04-21 03:07:00,
2013-04-20 23:12:00,50.9,48.0,30.20,SE,137,0.0,0.0,90,0.00,,,0.00,0.0,meteohub,2013-04-21 03:12:00,
2013-04-20 23:17:00,50.7,47.8,30.20,SE,137,0.0,0.0,90,0.00,,,0.00,0.0,meteohub,2013-04-21 03:17:00,
2013-04-20 23:22:00,50.7,47.8,30.21,SE,137,0.0,0.0,90,0.00,,,0.00,0.0,meteohub,2013-04-21 03:22:00,
2013-04-20 23:27:00,50.5,47.7,30.21,SE,137,0.0,0.0,90,0.00,,,0.00,0.0,meteohub,2013-04-21 03:27:00,
2013-04-20 23:32:00,50.5,47.7,30.21,SE,137,0.0,0.0,90,0.00,,,0.00,0.0,meteohub,2013-04-21 03:32:00,
2013-04-20 23:37:00,50.5,47.7,30.21,SE,137,0.0,0.0,90,0.00,,,0.00,0.0,meteohub,2013-04-21 03:37:00,
2013-04-20 23:42:00,50.4,47.5,30.21,SE,137,0.0,0.0,90,0.00,,,0.00,0.0,meteohub,2013-04-21 03:42:00,
2013-04-20 23:47:00,50.4,47.5,30.21,SE,137,0.0,0.0,90,0.00,,,0.00,0.0,meteohub,2013-04-21 03:47:00,
2013-04-20 23:52:00,50.4,47.5,30.22,SE,137,0.0,0.0,90,0.00,,,0.00,0.0,meteohub,2013-04-21 03:52:00,
2013-04-20 23:57:00,50.2,47.3,30.22,SE,137,0.0,0.0,90,0.00,,,0.00,0.0,meteohub,2013-04-21 03:57:00,